Regional Weather Roundup
Issued by NWS

Home | Current Version | Previous Version | Text Only | Print | Product List | Glossary On
Versions: 1 2 3 4 5 6 7 8 9 10 11 12 13 14 15 16 17 18 19 20 21 22 23 24 25 26 27 28 29 30 31 32 33 34 35 36 37 38 39 40 41 42 43 44 45 46 47 48 49 50
000
ASUS43 KOAX 252102
RWRNE

WEATHER ROUNDUP FOR NEBRASKA
NATIONAL WEATHER SERVICE OMAHA NE
300 PM CST SUN JAN 25 2015

NOTES: SATELLITE DATA IS BEING USED TO AUGMENT CLOUD COVER ABOVE
       12000 FEET.
       "FAIR" INDICATES FEW OR NO CLOUDS BELOW 12,000 FEET WITH NO
       SIGNIFICANT WEATHER AND/OR OBSTRUCTIONS TO VISIBILITY.

  * THESE STATIONS DO NOT REPORT WEATHER SUCH AS RAIN...SNOW OR FOG.

NEZ001>004-019>022-054>056-252200-
NEBRASKA PANHANDLE

CITY           SKY/WX    TMP DP  RH WIND       PRES   REMARKS
SCOTTSBLUFF    MOSUNNY   51  34  52 W8        30.06F
ALLIANCE       CLOUDY    47  35  63 NW15G26   30.02F
CHADRON        CLOUDY    50  34  54 W10       30.02F
SIDNEY         CLOUDY    52  32  46 NW15      30.07F
$$

NEZ057>060-069>072-079>082-252200-
SOUTHWEST NEBRASKA

CITY           SKY/WX    TMP DP  RH WIND       PRES   REMARKS
NORTH PLATTE   SUNNY     51  19  28 NW20G28   30.04F
IMPERIAL       SUNNY     55  22  27 NW22G30   30.05F
MCCOOK         SUNNY     54  21  27 N14G20    30.05F
$$

NEZ005>010-023>029-035>040-094-252200-
NORTH CENTRAL NEBRASKA

CITY           SKY/WX    TMP DP  RH WIND       PRES   REMARKS
VALENTINE      SUNNY     44  28  53 W14       30.03R
BROKEN BOW     MOSUNNY   44  29  55 N14       30.05R
ORD            CLOUDY    41  29  62 NW15      30.04S
$$

NEZ041-046>049-061>064-073>077-083>087-252200-
SOUTH CENTRAL NEBRASKA

CITY           SKY/WX    TMP DP  RH WIND       PRES   REMARKS
GRAND ISLAND   CLOUDY    41  30  65 N13       30.06R
HASTINGS       CLOUDY    43  28  55 N18       30.05R
KEARNEY *      CLOUDY    46  27  46 N20       30.05S
$$

NEZ011>018-030>034-042>045-252200-
NORTHEAST NEBRASKA

CITY           SKY/WX    TMP DP  RH WIND       PRES   REMARKS
NORFOLK        CLOUDY    39  32  76 NW9       30.03R WCI  33
COLUMBUS *     CLOUDY    39  28  65 NW12      30.05R WCI  32
TEKAMAH        CLOUDY    41  33  73 N14       30.03R
$$

NEZ050>053-065>068-078-088>093-252200-
SOUTHEAST NEBRASKA

CITY           SKY/WX    TMP DP  RH WIND       PRES   REMARKS
LINCOLN        CLOUDY    40  31  70 N15       30.04R WCI  32
OMAHA EPPLEY   PTSUNNY   43  32  65 N16       30.01R
FALLS CITY     CLOUDY    40  32  73 N15G23    29.98R WCI  32
$$

NEZ044-045-051>053-067-252200-
OMAHA AREA

CITY           SKY/WX    TMP DP  RH WIND       PRES   REMARKS
OMAHA EPPLEY   PTSUNNY   43  32  65 N16       30.01R
OFFUTT AFB     CLOUDY    41  30  66 N16       30.01R
$$


USA.gov is the U.S. government's official web portal to all federal, state and local government web resources and services.